Location: Cruquius
(52.3348°N, 4.6319°E)
Time: 09:06:00
(UTC+00:00)

Meteor 1-19 Rocket - Pass Details

Date: 12 May 2021
Orbit: 808 x 927 km, 81.2° (Epoch: 16 June)

Event Time Altitude Azimuth Distance (km) Brightness Sun altitude
Exits shadow 22:12:08 28° 156° (SSE) 1,469 4.9 -16.9°
Maximum altitude 22:14:41 51° 95° (E) 1,011 4.4 -17.0°
Drops below altitude 10° 22:19:55 10° 21° (NNE) 2,412 7.3 -17.3°
Sets 22:22:22 0° 17° (NNE) 3,356 8.2 -17.4°
